Showing default

GOES 13, 29155

Orbit data source: Space-Track

GOES 13, 29155 is a payload satellite owned by NOAA (US) in GEO that was launched on Wed, 24 May 2006 UTC via a DELTA 4M+(4,2) launch vehicle from the Air Force Eastern Test Range (AFETR). Payload-class satellites include a variety of spacecraft equipped with specific instruments for various scientific and technological missions. These include communications satellites like Starlink; space stations such as the ISS; scientific satellites like the Hubble; Earth observation satellites from companies like Planet Labs, Umbra, and HawkEye 360; GPS; miniature CubeSats for education and research; and military/defense satellites.

Not visible in the next 10 days
Identifier
29155, 2006-018A
Orbit
GEO
Last TLE update
1 day ago
Origin
Manufacturer
Boeing/ES
Mission
On reserve Civil Weather
Bus & Motor
HS-601, R-4D-11-300
Mass
3,209 kg wet, 1,543 kg dry
Launch date (UTC)
2006-05-24 (19 years ago)
Launch vehicle
DELTA 4M+(4,2)
Launch site
Air Force Eastern Test Range (AFETR)
Object type
Payload
Rocket body
Debris
Shape & HBR
Box + 1 Pan + 1 Ant, 10 m
Radar Cross Section
30.033 m², Large (>1 m²)

Expand to show TLE details & history

TLE from 1 day ago
0 GOES 13
1 29155U 06018A   25182.02121269 -.00000201  00000-0  00000-0 0  9992
2 29155   3.6188  80.7441 0060289 267.0064  65.1265  0.98790332 39776
Epoch: 2025-07-01T00:30Z
TLE epoch observation values (Epoch: 2025-07-01T00:30:32.776Z)
Latitude
-1.64855°
Longitude
126.60755°
Altitude
36,101.253 km
Speed
3.067 km/s
True Right ascension
03h 34m 16s
True Declination
-1° 38' 49"
Sunlit
Object was in daylight at epoch
Visualization orbit readout
Latitude
-0.14651°
Longitude
151.2325°
Altitude
36,207.869 km
Speed
3.059 km/s
Apparent Right ascension
04h 55m 14s
Apparent Declination
-5° 10' 40"
Sunlit
Object is in daylight
Visualization observer readout
Local Sidereal Time
14:08:52
Azimuth
301.724° NW
Elevation
-38.989°
Doppler factor
1
Orbital elements
Apogee altitude
36,464.884 km
Perigee altitude
35,951.387 km
Semi-major axis
42,586.273 km
Eccentricity
0.00603
Inclination
3.6188°
RAAN
80.7441°
Arg. of periapsis
267.0064°
True anomaly
Unknown
Mean anomaly
65.1265°
Eccentric anomaly
Unknown
Mean motion
0.24697 °/min
Orbital period
1,457.69 mins
BSTAR
0
Loading historical data...
29155 neighbors
Loading maneuver chart data...
Loading SW <> Apogee altitude chart data...
Loading historical data...
Loading historical data...
Loading historical data...
Loading historical data...
Loading historical data...
Loading historical data...
Loading historical data...
Other satellites on launch #18 in the year 2006 (2006-05-24 UTC)

GOES 13 Visibility

Observer location: undefined°, undefined°

GOES 13 is likely not visible in the next few days
Span
Click to sort rows by Start time (UTC) header in descending order
Start Az.
Max El. time (UTC)
Max El. Az.
Max El.
End time (UTC)
End Az.
|